Location: Cazarilh
(42.9578°N, 0.5819°E)
Time: 04:32:06
(UTC+00:00)

Cosmos 1484 Rocket - Pass Details

Date: 11 December 2019
Orbit: 505 x 561 km, 97.4° (Epoch: 24 January)

Event Time Altitude Azimuth Distance (km) Brightness Sun altitude
Rises 04:57:39 0° 13° (NNE) 2,733 6.4 -24.9°
Reaches altitude 10° 04:59:48 10° 14° (NNE) 1,826 5.5 -24.5°
Enters shadow 05:01:14 21° 16° (NNE) 1,248 4.6 -24.2°
Exits shadow 05:05:58 25° 188° (S) 1,117 4.4 -23.4°
Drops below altitude 10° 05:07:36 10° 190° (S) 1,778 5.4 -23.1°
Sets 05:09:41 0° 191° (SSW) 2,654 6.3 -22.7°
